Weather History for Worland, WY

Change the Weather History Date:

Wednesday, May 1, 2013

  Actual Average Record
Temperature  
Mean Temperature 37 °F 50 °F  
Max Temperature 44 °F 65 °F 86 °F (1981)
Min Temperature 29 °F 36 °F 24 °F (1972)
Degree Days  
Heating Degree Days 28 15  
Month to date heating degree days 28 15  
Since 1 July heating degree days 7207 7482  
Cooling Degree Days 0 0  
Month to date cooling degree days 0 0  
Year to date cooling degree days 0 1  
Moisture  
Dew Point 28 °F    
Average Humidity 72    
Maximum Humidity 100    
Minimum Humidity 43    
Precipitation  
Precipitation 0.27 in 0.04 in 0.62 in (1964)
Month to date precipitation 0.27 0.04  
Year to date precipitation 1.84 1.78  
Sea Level Pressure  
Sea Level Pressure 30.41 in    
Wind  
Wind Speed 7 mph (West)    
Max Wind Speed 17 mph    
Max Gust Speed 22 mph    
Visibility 4 miles    
Events Fog , Snow    
T = Trace of Precipitation, MM = Missing Value Source: NWS Daily Summary

Daily Weather History Graph

Daily Weather History Graph

Search for Another Location

Airport:

Trip Planner

Search our weather history database for the weather conditions in past years. The results will help you decide how hot, cold, wet, or windy it might be!

Date:

Astronomy

May. 01, 2013 Rise Set
Actual Time 6:03 AM MDT 8:15 PM MDT
Civil Twilight 5:31 AM MDT 8:47 PM MDT
Nautical Twilight 4:52 AM MDT 9:26 PM MDT
Astronomical Twilight 4:09 AM MDT 10:10 PM MDT
Moon 1:27 AM MDT 11:45 AM MDT
Length of Visible Light 15h 15m
Length of Day
14h 12m
Waning Gibbous, 58% of the Moon is Illuminated
May 1
Waning Gibbous
May 2
Last Quarter
May 9
New
May 17
First Quarter
May 24
Full

Hourly Weather History & Observations

Time (MDT) Temp. Windchill Dew Point Humidity Pressure Visibility Wind Dir Wind Speed Gust Speed Precip Events Conditions
12:53 AM 32.0 °F - 30.9 °F 96% 30.24 in 1.0 mi Calm Calm - 0.01 in Snow Light Snow
1:19 AM 32.0 °F - 30.2 °F 93% 30.17 in 0.8 mi Calm Calm - 0.02 in Snow Light Snow
1:42 AM 32.0 °F - 30.2 °F 93% 30.17 in 0.8 mi Calm Calm - 0.04 in Snow Light Snow
1:53 AM 32.0 °F 26.4 °F 30.9 °F 96% 30.24 in 0.8 mi WNW 5.8 mph - 0.05 in Snow Light Snow
2:53 AM 30.9 °F 24.3 °F 30.0 °F 96% 30.25 in 1.0 mi WNW 6.9 mph - 0.06 in Snow Light Snow
3:13 AM 30.2 °F 22.6 °F 28.4 °F 93% 30.19 in 1.0 mi NW 8.1 mph - 0.00 in Snow Light Snow
3:53 AM 30.0 °F 24.1 °F 28.9 °F 96% 30.26 in 1.5 mi NW 5.8 mph - 0.01 in Snow Light Snow
4:53 AM 30.0 °F 22.4 °F 28.9 °F 96% 30.28 in 1.5 mi NNW 8.1 mph - 0.01 in Snow Light Snow
5:08 AM 30.2 °F 24.3 °F 28.4 °F 93% 30.23 in 2.0 mi NNW 5.8 mph - 0.00 in Snow Light Snow
5:15 AM 30.2 °F 24.3 °F 28.4 °F 93% 30.23 in 1.8 mi North 5.8 mph - 0.00 in Snow Light Snow
5:45 AM 30.2 °F 24.3 °F 26.6 °F 86% 30.25 in 0.8 mi North 5.8 mph - 0.02 in Snow Light Snow
6:22 AM 28.4 °F 22.2 °F 28.4 °F 100% 30.28 in 0.2 mi NNW 5.8 mph - 0.03 in Fog , Snow Snow
6:53 AM 28.9 °F 25.2 °F 28.0 °F 96% 30.38 in 0.5 mi NNW 3.5 mph - 0.06 in Fog , Snow Snow
7:00 AM 28.4 °F 24.6 °F 26.6 °F 93% 30.30 in 0.5 mi NW 3.5 mph - 0.00 in Fog , Snow Snow
7:11 AM 28.4 °F 24.6 °F 26.6 °F 93% 30.31 in 0.5 mi West 3.5 mph - 0.01 in Fog , Snow Snow
7:42 AM 28.4 °F - 26.6 °F 93% 30.34 in 0.2 mi Calm Calm - 0.03 in Fog , Snow Snow
8:04 AM 28.4 °F - 26.6 °F 93% 30.35 in 0.5 mi Calm Calm - 0.01 in Fog , Snow Snow
8:21 AM 28.4 °F 24.6 °F 26.6 °F 93% 30.36 in 1.2 mi West 3.5 mph - 0.01 in Snow Light Snow
8:35 AM 28.4 °F - 28.4 °F 100% 30.37 in 3.0 mi Calm Calm - 0.01 in Snow Light Snow
8:53 AM 28.9 °F - 28.0 °F 96% 30.46 in 2.0 mi Calm Calm - 0.01 in Snow Light Snow
9:12 AM 28.4 °F 24.6 °F 28.4 °F 100% 30.38 in 1.8 mi SW 3.5 mph - 0.00 in Snow Light Snow
9:28 AM 30.2 °F 25.4 °F 28.4 °F 93% 30.39 in 2.0 mi SW 4.6 mph - 0.00 in Snow Light Snow
9:53 AM 30.0 °F 24.1 °F 28.0 °F 92% 30.49 in 2.5 mi SSW 5.8 mph - 0.00 in Snow Light Snow
10:31 AM 30.2 °F 23.4 °F 28.4 °F 93% 30.42 in 1.8 mi SSW 6.9 mph - 0.00 in Snow Light Snow
10:53 AM 30.0 °F 24.1 °F 28.0 °F 92% 30.53 in 1.5 mi SSW 5.8 mph - 0.00 in Snow Light Snow
11:31 AM 30.2 °F 23.4 °F 28.4 °F 93% 30.44 in 1.5 mi SW 6.9 mph - 0.00 in Snow Light Snow
11:39 AM 30.2 °F 22.6 °F 30.2 °F 100% 30.44 in 2.0 mi SW 8.1 mph - 0.00 in Snow Light Snow
11:53 AM 32.0 °F 26.4 °F 30.0 °F 92% 30.54 in 2.5 mi WSW 5.8 mph - 0.00 in Snow Light Snow
12:00 PM 33.8 °F 28.6 °F 30.2 °F 87% 30.44 in 5.0 mi WSW 5.8 mph - 0.00 in Snow Light Snow
12:31 PM 35.6 °F 29.9 °F 28.4 °F 75% 30.45 in 10.0 mi WNW 6.9 mph - 0.00 in   Mostly Cloudy
12:53 PM 37.0 °F 33.3 °F 30.0 °F 76% 30.53 in 10.0 mi NW 4.6 mph - 0.00 in   Scattered Clouds
1:53 PM 39.0 °F 34.8 °F 28.0 °F 65% 30.53 in 10.0 mi Variable 5.8 mph - N/A   Overcast
3:53 PM 39.9 °F 37.8 °F 26.1 °F 58% 30.55 in 10.0 mi WNW 3.5 mph - N/A   Scattered Clouds
4:53 PM 42.1 °F 37.1 °F 23.0 °F 47% 30.54 in 10.0 mi SSW 8.1 mph - N/A   Clear
5:53 PM 42.1 °F - 21.9 °F 45% 30.56 in 10.0 mi Calm Calm - N/A   Partly Cloudy
6:53 PM 42.1 °F 37.1 °F 27.0 °F 55% 30.57 in 10.0 mi South 8.1 mph - N/A   Partly Cloudy
7:53 PM 39.0 °F 33.4 °F 28.9 °F 67% 30.61 in 10.0 mi SSE 8.1 mph - N/A   Partly Cloudy
8:53 PM 37.0 °F 30.4 °F 30.0 °F 76% 30.64 in 10.0 mi SSE 9.2 mph - N/A   Mostly Cloudy
9:53 PM 37.0 °F 28.5 °F 30.0 °F 76% 30.66 in 10.0 mi ESE 13.8 mph 21.9 mph N/A   Mostly Cloudy
10:53 PM 34.0 °F 25.0 °F 28.9 °F 82% 30.69 in 10.0 mi SE 12.7 mph - N/A   Clear
11:53 PM 33.1 °F 23.9 °F 28.9 °F 85% 30.69 in 10.0 mi SE 12.7 mph - N/A   Clear